STARLINK-2412

Last updated on Sat May 08 2021 00:02:03 GMT+0000 (Coordinated Universal Time)

1 48094U 21027C 21127.58334491 -.00050704 00000-0 -35809-3 0 9993 2 48094 53.0470 191.7202 0002470 29.0219 286.1363 15.73251631 1772

Satellite not in orbit